User: anonymous   Login
Location: Long Island Community Building
(39.9491°N, 99.5338°W)
Time: 00:33:58
(UTC+00:00)
Language:

PSLV R/B - Orbit

View from above orbital plane
View from above orbital plane
View from above satellite
View from above satellite

Ground track
Ground track

The orbit data is extracted from the following two-line orbital elements,

1 26960U 01049D   20047.54037846  .00000218  00000-0  18048-4 0  9993
2 26960  97.8034  38.7923 0056145  95.1170 265.6469 15.08110575   867
Epoch (UTC): 16 February 2020 12:58:08
Eccentricity: 0.0056145
inclination: 97.8034°
perigee height: 503 km
apogee height: 581 km
right ascension of ascending node: 38.7923°
argument of perigee: 95.1170°
revolutions per day: 15.08110575
mean anomaly at epoch: 265.6469°
orbit number at epoch: 86

The dashed part of the orbit path shows where the satellite is in the earth's shadow,  

DLR